User: anonymous   Login
Location: Unspecified
(0.0000°N, 0.0000°E)
Time: 20:08:59
(UTC+00:00)
Language:

Vanguard 2 Rocket - Orbit

View from above orbital plane
View from above orbital plane
View from above satellite
View from above satellite

Ground track
Ground track

The orbit data is extracted from the following two-line orbital elements,

1 00012U 59001B   15147.53715295  .00000620  00000-0  37992-3 0  9994
2 00012 032.9003 334.4290 1666725 083.4376 295.2384 11.43667521310868
Epoch (UTC): 27 May 2015 12:53:30
Eccentricity: 0.1666725
inclination: 32.9003°
perigee height: 556 km
apogee height: 3330 km
right ascension of ascending node: 334.4290°
argument of perigee: 83.4376°
revolutions per day: 11.43667521
mean anomaly at epoch: 295.2384°
orbit number at epoch: 31086

The dashed part of the orbit path shows where the satellite is in the earth's shadow,  

DLR